User: anonymous   Login
Location: Unspecified
(42.1900°N, 71.3291°W)
Time: 11:01:17
(UTC-04:00)
Language:

Resurs 1-4 Rocket - Orbit

View from above orbital plane
View from above orbital plane
View from above satellite
View from above satellite

Ground track
Ground track

The orbit data is extracted from the following two-line orbital elements,

1 25400U 98043G   16120.47940298  .00000017  00000-0  25083-4 0  9998
2 25400  98.4336  77.2633 0011003  69.2435 290.9923 14.25378865926132
Epoch (UTC): 29 April 2016 11:30:20
Eccentricity: 0.0011003
inclination: 98.4336°
perigee height: 799 km
apogee height: 815 km
right ascension of ascending node: 77.2633°
argument of perigee: 69.2435°
revolutions per day: 14.25378865
mean anomaly at epoch: 290.9923°
orbit number at epoch: 92613

The dashed part of the orbit path shows where the satellite is in the earth's shadow,  

DLR